TimePDT,TemperatureF,Dew PointF,Humidity,Sea Level PressureIn,VisibilityMPH,Wind Direction,Wind SpeedMPH,Gust SpeedMPH,PrecipitationIn,Events,Conditions,WindDirDegrees,DateUTC
12:56 AM,41.0,33.1,73,30.07,10.0,SSE,8.1,-,N/A,,Clear,160,2013-09-19 07:56:00
1:56 AM,39.0,32.0,76,30.07,10.0,SSE,5.8,-,N/A,,Clear,160,2013-09-19 08:56:00
2:56 AM,39.9,32.0,73,30.06,10.0,South,5.8,-,N/A,,Clear,170,2013-09-19 09:56:00
3:56 AM,35.1,30.0,82,30.06,10.0,East,3.5,-,N/A,,Clear,80,2013-09-19 10:56:00
4:56 AM,36.0,30.0,79,30.05,10.0,Calm,Calm,-,N/A,,Clear,0,2013-09-19 11:56:00
5:56 AM,34.0,30.0,85,30.05,10.0,Calm,Calm,-,N/A,,Clear,0,2013-09-19 12:56:00
6:56 AM,32.0,28.9,88,30.06,10.0,Calm,Calm,-,N/A,,Clear,0,2013-09-19 13:56:00
7:56 AM,43.0,33.1,68,30.05,10.0,Calm,Calm,-,N/A,,Clear,0,2013-09-19 14:56:00
8:56 AM,52.0,34.0,50,30.04,10.0,Calm,Calm,-,N/A,,Clear,0,2013-09-19 15:56:00
9:56 AM,60.1,34.0,38,30.01,10.0,NE,3.5,-,N/A,,Clear,40,2013-09-19 16:56:00
10:56 AM,66.9,32.0,27,29.99,10.0,SE,10.4,-,N/A,,Clear,140,2013-09-19 17:56:00
11:56 AM,71.1,30.9,23,29.97,10.0,SSE,10.4,-,N/A,,Clear,160,2013-09-19 18:56:00
12:56 PM,73.9,30.9,21,29.94,10.0,ESE,10.4,19.6,N/A,,Clear,110,2013-09-19 19:56:00
1:56 PM,77.0,25.0,15,29.92,10.0,East,6.9,20.7,N/A,,Clear,100,2013-09-19 20:56:00
2:56 PM,79.0,26.1,14,29.88,10.0,SE,11.5,20.7,N/A,,Clear,140,2013-09-19 21:56:00
3:56 PM,80.1,25.0,13,29.86,10.0,SSE,10.4,23.0,N/A,,Clear,150,2013-09-19 22:56:00
4:56 PM,81.0,23.0,12,29.83,10.0,ESE,11.5,18.4,N/A,,Clear,120,2013-09-19 23:56:00
5:56 PM,79.0,21.9,12,29.82,10.0,SE,10.4,19.6,N/A,,Clear,130,2013-09-20 00:56:00
6:56 PM,75.0,21.9,14,29.82,10.0,Calm,Calm,-,N/A,,Clear,0,2013-09-20 01:56:00
7:56 PM,66.0,35.1,32,29.82,10.0,West,5.8,-,N/A,,Clear,270,2013-09-20 02:56:00
8:56 PM,62.1,37.0,39,29.84,10.0,WNW,10.4,-,N/A,,Clear,300,2013-09-20 03:56:00
9:56 PM,61.0,36.0,39,29.83,10.0,West,5.8,-,N/A,,Clear,280,2013-09-20 04:56:00
10:56 PM,57.9,36.0,44,29.83,10.0,NW,5.8,-,N/A,,Clear,310,2013-09-20 05:56:00
11:56 PM,53.1,36.0,52,29.81,10.0,NW,3.5,-,N/A,,Clear,310,2013-09-20 06:56:00